This is the latest recevied weather packets stored in our database for station/object N5UKZ-WX. If no packets are shown the sender has not sent any weather packets the latest 10 day(s).
| Time | Temp. | Humidity | Pressure | Rain* | Wind** | Luminosity | Snow |
|---|---|---|---|---|---|---|---|
| 1777467024 | 23.89° C | 94% | 1014.6 hPa | 0 mm | - | - | - |
| 1777466124 | 23.33° C | 94% | 1014.6 hPa | 0 mm | - | - | - |
| 1777465224 | 23.33° C | 94% | 1014.6 hPa | 0 mm | - | - | - |
| 1777464323 | 23.33° C | 94% | 1014.3 hPa | 0 mm | - | - | - |
| 1777463423 | 22.78° C | 93% | 1013.9 hPa | 0 mm | - | - | - |
| 1777462523 | 22.78° C | 93% | 1013.9 hPa | 0 mm | - | - | - |
| 1777461623 | 23.33° C | 93% | 1013.6 hPa | 0 mm | - | - | - |
| 1777460722 | 22.22° C | 92% | 1013.6 hPa | 0 mm | - | - | - |
| 1777459822 | 22.78° C | 92% | 1013.2 hPa | 0 mm | - | - | - |
| 1777458922 | 23.89° C | 92% | 1012.9 hPa | 0 mm | - | - | - |
| 1777458022 | 23.33° C | 92% | 1012.9 hPa | 0 mm | - | - | - |
| 1777457122 | 24.44° C | 92% | 1012.9 hPa | 0 mm | - | - | - |
| 1777456221 | 23.33° C | 92% | 1012.9 hPa | 0 mm | - | - | - |
| 1777455321 | 23.33° C | 91% | 1012.6 hPa | 0 mm | - | - | - |
| 1777454421 | 24.44° C | 91% | 1012.6 hPa | 0 mm | - | - | - |
| 1777453521 | 23.89° C | 91% | 1012.6 hPa | 0 mm | - | - | - |
| 1777452621 | 24.44° C | 91% | 1012.6 hPa | 0 mm | - | - | - |
| 1777451721 | 24.44° C | 90% | 1012.6 hPa | 0 mm | - | - | - |
| 1777450820 | 23.89° C | 90% | 1012.6 hPa | 0 mm | - | - | - |
| 1777449920 | 23.89° C | 90% | 1012.9 hPa | 0 mm | - | - | - |
| 1777449020 | 24.44° C | 90% | 1012.9 hPa | 0 mm | - | - | - |
| 1777448120 | 23.89° C | 89% | 1012.9 hPa | 0 mm | - | - | - |
| 1777447220 | 24.44° C | 89% | 1012.9 hPa | 0 mm | - | - | - |
| 1777446319 | 24.44° C | 88% | 1013.6 hPa | 0 mm | - | - | - |
| 1777445419 | 25° C | 88% | 1013.6 hPa | 0 mm | - | - | - |
* Rain latest hour (hover to see other rain measurements)
** Current wind speed in m/s (hover to see current wind gust speed)